Weather History for LIVE - December, 2012

Change the Weather History Date:

Friday, December 28, 2012

  Actual Average Record
Temperature  
Mean Temperature 30 °F -  
Max Temperature 35 °F 30 °F 42 °F (2006)
Min Temperature 24 °F 17 °F 6 °F (1996)
Degree Days  
Heating Degree Days 36    
Moisture  
Dew Point 24 °F    
Average Humidity 80    
Maximum Humidity 93    
Minimum Humidity 56    
Precipitation  
Precipitation 0.00 in - - ()
Sea Level Pressure  
Sea Level Pressure 30.16 in    
Wind  
Wind Speed 4 mph ()    
Max Wind Speed 7 mph    
Max Gust Speed 22 mph    
Visibility 5.2 miles    
Events Snow    
Averages and records for this station are not official NWS values.
T = Trace of Precipitation, MM = Missing Value Source: Averaged Metar Reports

Daily Weather History Graph

Daily Weather History Graph

Search for Another Location

Airport or City:

Trip Planner

Search our weather history database for the weather conditions in past years. The results will help you decide how hot, cold, wet, or windy it might be!

Date:

Astronomy

Dec. 28, 2012 Rise Set
Actual Time 8:02 AM CET 4:36 PM CET
Civil Twilight 7:27 AM CET 5:12 PM CET
Nautical Twilight 6:48 AM CET 5:50 PM CET
Astronomical Twilight 6:11 AM CET 6:27 PM CET
Moon 5:01 PM CET (12/28) 7:42 AM CET (12/28)
Length of Visible Light 9h 44m
Length of Day
8h 34m
Full, 100% of the Moon is Illuminated
Dec 28
Full
Jan 5
Last Quarter
Jan 11
New
Jan 19
First Quarter
Jan 27
Full

Hourly Weather History & Observations

Time (CET) Temp. Windchill Dew Point Humidity Pressure Visibility Wind Dir Wind Speed Gust Speed Precip Events Conditions
12:55 AM 30.2 °F 26.7 °F 26.6 °F 86% 29.92 in 6.2 mi North 3.5 mph - N/A   Overcast
1:55 AM 30.2 °F - 26.6 °F 86% 29.92 in 6.2 mi Calm Calm - N/A   Overcast
2:55 AM 30.2 °F - 28.4 °F 93% 29.92 in 4.3 mi Calm Calm - N/A Snow Light Snow
3:55 AM 30.2 °F 26.7 °F 28.4 °F 93% 29.92 in 4.3 mi North 3.5 mph - N/A Snow Light Snow
4:55 AM 30.2 °F 26.7 °F 28.4 °F 93% 29.95 in 4.3 mi NE 3.5 mph - N/A Snow Light Snow
5:55 AM 30.2 °F 26.7 °F 28.4 °F 93% 29.98 in 4.3 mi NE 3.5 mph - N/A Snow Light Snow
6:55 AM 30.2 °F 25.4 °F 28.4 °F 93% 30.01 in 4.3 mi NE 4.6 mph - N/A Snow Light Snow
7:55 AM 30.2 °F 26.7 °F 28.4 °F 93% 30.06 in 4.3 mi NNE 3.5 mph - N/A Snow Light Snow
8:55 AM 30.2 °F 25.4 °F 28.4 °F 93% 30.09 in 4.3 mi NE 4.6 mph - N/A Snow Light Snow
9:55 AM 30.2 °F 24.3 °F 26.6 °F 86% 30.15 in 4.3 mi NE 5.8 mph 17.3 mph N/A Snow Light Snow
10:55 AM 30.2 °F 26.7 °F 26.6 °F 86% 30.21 in 6.2 mi NNE 3.5 mph - N/A Snow Light Snow
11:55 AM 33.8 °F 30.8 °F 24.8 °F 70% 30.21 in 6.2 mi NNE 3.5 mph - N/A   Mostly Cloudy
12:55 PM 33.8 °F 27.7 °F 24.8 °F 70% 30.24 in 6.2 mi NNE 6.9 mph - N/A   Mostly Cloudy
1:55 PM 35.6 °F 29.9 °F 21.2 °F 56% 30.24 in 6.2 mi North 6.9 mph - N/A   Scattered Clouds
2:55 PM 35.6 °F 30.7 °F 21.2 °F 56% 30.27 in 6.2 mi North 5.8 mph - N/A   Partly Cloudy
3:55 PM 30.2 °F 24.3 °F 19.4 °F 64% 30.27 in - North 5.8 mph - N/A   Clear
4:55 PM 28.4 °F 22.2 °F 17.6 °F 64% 30.30 in - NNE 5.8 mph - N/A   Clear
5:55 PM 26.6 °F 20.0 °F 17.6 °F 69% 30.30 in - North 5.8 mph - N/A   Clear
6:55 PM 26.6 °F 19.1 °F 19.4 °F 74% 30.30 in - North 6.9 mph 21.9 mph N/A   Clear
7:55 PM 24.8 °F 17.9 °F 19.4 °F 80% 30.33 in - North 5.8 mph - N/A   Clear
8:55 PM 26.6 °F 19.1 °F 21.2 °F 80% 30.30 in - North 6.9 mph - N/A   Clear
9:55 PM 26.6 °F 20.0 °F 21.2 °F 80% 30.30 in - North 5.8 mph - N/A   Clear
10:55 PM 26.6 °F 20.0 °F 21.2 °F 80% 30.30 in - North 5.8 mph - N/A   Clear
11:55 PM 26.6 °F 22.6 °F 21.2 °F 80% 30.33 in - North 3.5 mph - N/A   Clear